Crescent City, CA

6:54 PM PST on November 24, 2017 (GMT -0800)
McNamara

Weather History for KCEC - May, 2014

Change the Weather History Date:

Sunday, May 25, 2014

  Actual Average Record
Temperature  
Mean Temperature 57 °F 53 °F  
Max Temperature 61 °F 59 °F 82 °F (1979)
Min Temperature 52 °F 48 °F 39 °F (1950)
Degree Days  
Heating Degree Days 10 12  
Month to date heating degree days 325  
Since 1 July heating degree days 4482  
Cooling Degree Days 0 0  
Month to date cooling degree days 0  
Year to date cooling degree days 0  
Growing Degree Days 6 (Base 50)    
Moisture  
Dew Point 52 °F    
Average Humidity 86    
Maximum Humidity 100    
Minimum Humidity 72    
Precipitation  
Precipitation 0.00 in 0.07 in 1.14 in (1960)
Month to date precipitation 1.49 2.48  
Year to date precipitation 22.76 34.81  
Since 1 July precipitation 31.75  
Snow  
Snow 0.00 in - - ()
Month to date snowfall 0.0  
Since 1 July snowfall 0.0  
Snow Depth -    
Sea Level Pressure  
Sea Level Pressure 30.14 in    
Wind  
Wind Speed 6 mph (West)    
Max Wind Speed 14 mph    
Max Gust Speed 18 mph    
Visibility 10 miles    
Events      
T = Trace of Precipitation, MM = Missing Value Source: NWS Daily Summary

Daily Weather History Graph

Daily Weather History Graph

Search for Another Location

Airport or City:

Trip Planner

Search our weather history database for the weather conditions in past years. The results will help you decide how hot, cold, wet, or windy it might be!

Date:

Astronomy

May. 25, 2014 Rise Set
Actual Time 5:48 AM PDT 8:39 PM PDT
Civil Twilight 5:15 AM PDT 9:12 PM PDT
Nautical Twilight 4:34 AM PDT 9:54 PM PDT
Astronomical Twilight 3:46 AM PDT 10:42 PM PDT
Moon 3:59 AM PDT 5:43 PM PDT
Length of Visible Light 15h 56m
Length of Day
14h 51m
Waning Crescent, 10% of the Moon is Illuminated
May 25
Waning Crescent
May 28
New
Jun 5
First Quarter
Jun 12
Full
Jun 19
Last Quarter

Hourly Weather History & Observations

Time (PDT) Temp. Dew Point Humidity Pressure Visibility Wind Dir Wind Speed Gust Speed Precip Events Conditions
12:05 AM 51.1 °F 50.0 °F 96% 30.13 in 10.0 mi South 11.5 mph - N/A   Scattered Clouds
12:14 AM 52.0 °F 50.0 °F 93% 30.14 in 10.0 mi South 10.4 mph - N/A   Mostly Cloudy
12:56 AM 53.1 °F 51.1 °F 93% 30.14 in 10.0 mi SSE 11.5 mph - N/A   Overcast
1:56 AM 53.1 °F 51.1 °F 93% 30.14 in 10.0 mi SSE 11.5 mph - N/A   Overcast
2:56 AM 53.1 °F 51.1 °F 93% 30.13 in 10.0 mi SSE 10.4 mph - N/A   Overcast
3:56 AM 53.1 °F 52.0 °F 96% 30.13 in 10.0 mi SSE 5.8 mph - N/A   Overcast
4:56 AM 53.1 °F 51.1 °F 93% 30.12 in 10.0 mi NE 4.6 mph - N/A   Overcast
5:56 AM 53.1 °F 51.1 °F 93% 30.12 in 10.0 mi Calm Calm - N/A   Overcast
6:33 AM 52.0 °F 51.1 °F 97% 30.12 in 7.0 mi NNE 4.6 mph - N/A   Overcast
6:56 AM 52.0 °F 51.1 °F 97% 30.13 in 6.0 mi North 4.6 mph - N/A   Overcast
8:56 AM 52.0 °F 52.0 °F 100% 30.15 in 5.0 mi Calm Calm - N/A   Overcast
9:56 AM 53.1 °F 52.0 °F 96% 30.15 in 10.0 mi SSW 4.6 mph - N/A   Overcast
10:22 AM 53.1 °F 51.1 °F 93% 30.15 in 10.0 mi Calm Calm - N/A   Overcast
10:56 AM 54.0 °F 51.1 °F 90% 30.16 in 10.0 mi West 4.6 mph - N/A   Overcast
11:51 AM 55.4 °F 51.8 °F 88% 30.14 in 10.0 mi Variable 4.6 mph - N/A   Overcast
11:56 AM 55.9 °F 52.0 °F 87% 30.15 in 10.0 mi South 6.9 mph - N/A   Overcast
12:46 PM 55.9 °F 52.0 °F 87% 30.15 in 10.0 mi WNW 6.9 mph - N/A   Overcast
12:56 PM 55.9 °F 52.0 °F 87% 30.15 in 10.0 mi West 5.8 mph - N/A   Overcast
1:38 PM 57.9 °F 53.1 °F 84% 30.15 in 10.0 mi West 4.6 mph - N/A   Scattered Clouds
1:56 PM 59.0 °F 53.1 °F 81% 30.16 in 10.0 mi West 5.8 mph - N/A   Clear
2:56 PM 59.0 °F 52.0 °F 78% 30.16 in 10.0 mi Variable 4.6 mph - N/A   Clear
3:56 PM 60.1 °F 52.0 °F 75% 30.15 in 10.0 mi WNW 6.9 mph - N/A   Clear
4:56 PM 59.0 °F 53.1 °F 81% 30.15 in 10.0 mi WNW 8.1 mph - N/A   Mostly Cloudy
5:56 PM 59.0 °F 52.0 °F 78% 30.14 in 10.0 mi NW 5.8 mph - N/A   Clear
6:56 PM 60.1 °F 52.0 °F 75% 30.13 in 10.0 mi Calm Calm - N/A   Overcast
7:33 PM 55.9 °F 52.0 °F 87% 30.13 in 10.0 mi WNW 5.8 mph - N/A   Mostly Cloudy
8:56 PM 55.9 °F 53.1 °F 90% 30.14 in 10.0 mi Calm Calm - N/A   Overcast
9:56 PM 55.0 °F 53.1 °F 93% 30.15 in 10.0 mi WNW 3.5 mph - N/A   Overcast
10:09 PM 55.0 °F 53.1 °F 93% 30.15 in 10.0 mi WNW 3.5 mph - N/A   Overcast
10:56 PM 54.0 °F 53.1 °F 97% 30.15 in 10.0 mi NW 5.8 mph - N/A   Overcast
11:17 PM 54.0 °F 54.0 °F 100% 30.15 in 10.0 mi Calm Calm - N/A   Overcast
11:56 PM 55.0 °F 54.0 °F 96% 30.15 in 9.0 mi Calm Calm - N/A   Overcast